Location: Boissi�res
(45.2500°N, 2.3667°E)
Time: 22:49:18
(UTC+00:00)

Gbstr 26 Del rocket - Pass Details

Date: 03 March 2021
Orbit: 492 x 1264 km, 51.8° (Epoch: 18 April)

Event Time Altitude Azimuth Distance (km) Brightness Sun altitude
Rises 19:53:29 0° 289° (WNW) 2,892 7.9 -24.0°
Reaches altitude 10° 19:55:41 10° 297° (WNW) 2,081 6.8 -24.4°
Maximum altitude 20:00:16 42° 9° (N) 1,072 4.2 -25.1°
Enters shadow 20:01:02 40° 32° (NNE) 1,139 4.2 -25.3°
